sat.trackr.live / text

‹ back to catalog

STARLINK-30477

NORAD 57912 · 2023-146X

PAYLOAD ACTIVE UNKNOWN

§ Identity

Operator
Country
US
Launch date
2023-09-20
Launch site
AFETR
Launch vehicle
Mass (kg)
RCS (m²)

Purposes: comms

External: N2YO · Heavens-Above · Gunter

§ Orbital elements

Epoch: 2026-05-24T23:06:19.846080Z

Period
94.27 min
Inclination
43.0018°
Eccentricity
0.0001312
Mean motion
15.27580526 rev/d
Perigee alt
482.1 km
Apogee alt
483.9 km
Semi-major
6,861.2 km
B*
9.6195e-5
RAAN
239.8352°
Arg perigee
273.2881°
Mean anomaly
86.7820°
Rev number
14,876

§ Raw data

STARLINK-304771 57912U 23146X   26144.96272970  .00002386  00000+0  96195-4 0  99912 57912  43.0018 239.8352 0001312 273.2881  86.7820 15.27580526148760

JSON: /api/v1/satellites/57912 · /tle

For live sub-satellite position, see the globe view (requires WebGL).

§ Visibility from observer

Set your observer location to see the next 7 days of passes ≥ 10°. The values pass through the URL so the page stays shareable.

No JS? Fill the form by hand. The geolocation button needs JavaScript.